Location: Hamilton
(43.2500°N, 79.8330°W)
Time: 21:41:19
(UTC-05:00)

Amateur Radio Satellites - All Passes

Search period start: 17 December 2014 21:11
Search period end: 18 December 2014 21:11
Location: Hamilton, 43.2500°N, 79.8330°W

Satellite Date Start Highest point End Downlink Frequencies (MHz)
Time Altitude Azimuth
BEESAT 3 17 Dec 21:12:52 21:14:12 11° 34° (NNE) 21:15:31 437.485
SO-50 17 Dec 21:16:18 21:19:52 23° 112° (ESE) 21:23:31 436.795
ISS 17 Dec 21:16:47 21:20:04 77° 214° (SW) 21:23:19 145.825
DX 1 17 Dec 21:23:11 21:27:32 84° 256° (WSW) 21:31:55 434.975-435.025
DANDE 17 Dec 21:26:15 21:33:32 81° 262° (W) 21:42:08 436.750
COMPASS 1 17 Dec 21:27:28 21:31:05 28° 265° (W) 21:34:45 437.405
RS-15 17 Dec 21:27:33 21:38:52 86° 56° (ENE) 21:50:41 29.354- 29.394
CUTE 1.7 + AOD 2 17 Dec 21:28:00 21:31:14 21° 267° (W) 21:34:31 437.475
SEEDS 17 Dec 21:28:45 21:32:09 23° 266° (W) 21:35:36 437.485
CUBEBUG 1 17 Dec 21:29:02 21:31:27 15° 62° (ENE) 21:33:52 437.445
CINEMA 3 17 Dec 21:44:02 21:47:56 40° 262° (W) 21:51:55 145.822/145.860
BEESAT 2 17 Dec 21:48:33 21:51:32 18° 41° (NE) 21:54:30 435.950
CUBEBUG 2 17 Dec 21:48:47 21:52:53 58° 260° (W) 21:57:05 437.445
TIGRISAT 17 Dec 21:51:38 21:54:09 14° 90° (E) 21:56:41 435.000
Oscar 11 17 Dec 21:52:06 21:56:02 34° 263° (W) 22:00:01 145.826/435.025
GOMX 1 17 Dec 21:53:26 21:55:48 15° 269° (W) 21:58:10 467.674
ESTCUBE 1 17 Dec 21:54:58 21:58:51 29° 67° (ENE) 22:02:45 437.505/2401.250
UKube-1 17 Dec 21:58:21 22:02:20 36° 262° (W) 22:06:22 .
HO-68 17 Dec 22:02:15 22:07:07 19° 270° (W) 22:12:01 435.675
QB50P1 17 Dec 22:02:58 22:03:33 10° 89° (E) 22:04:07 145.935-145.965
HUMSAT D 17 Dec 22:03:06 22:07:13 86° 76° (ENE) 22:11:25 437.325/437.525
VELOX 1 17 Dec 22:03:46 22:08:12 86° 76° (ENE) 22:12:38 145.980
DELFI C3 17 Dec 22:03:48 22:07:22 28° 264° (W) 22:10:59 145.870
50 SAT 17 Dec 22:06:18 22:10:17 76° 75° (ENE) 22:14:21 437.505
PCSat 17 Dec 22:06:59 22:10:42 18° 40° (NE) 22:14:24 145.827
ZACube-1 17 Dec 22:13:50 22:17:47 42° 262° (W) 22:21:49 437.345
UNISAT 6 17 Dec 22:17:51 22:21:50 27° 95° (E) 22:25:50 437.425
POPSAT HIP 1 17 Dec 22:28:53 22:32:07 21° 94° (E) 22:35:20 437.405
CUSAT 1 17 Dec 22:34:35 22:40:35 27° 273° (W) 22:47:12 437.405
UWE-3 17 Dec 22:34:57 22:38:11 22° 267° (W) 22:41:29 435.000/436.395/437.385
YUBILEINY 17 Dec 22:35:00 22:39:27 15° 74° (ENE) 22:43:53 435.215
AIST 2 17 Dec 22:37:36 22:41:12 25° 44° (NE) 22:44:46 435.215
FUNcube-1 17 Dec 22:42:32 22:45:45 22° 267° (W) 22:49:01 145.935
AISAT 17 Dec 22:45:37 22:49:38 34° 263° (W) 22:53:40 437.250
SPROUT 17 Dec 22:48:57 22:52:19 23° 66° (ENE) 22:55:42 437.525
ANTELSAT 17 Dec 22:49:00 22:53:38 55° 100° (E) 22:58:16 437.575/2403.000
BEESAT 3 17 Dec 22:49:04 22:53:14 63° 54° (NE) 22:57:20 437.485
SO-50 17 Dec 22:55:45 23:00:07 45° 311° (NW) 23:04:39 436.795
TISAT 1 17 Dec 22:55:54 22:59:32 29° 68° (ENE) 23:03:11 437.305
DUCHIFAT 1 17 Dec 22:57:58 23:02:01 42° 99° (E) 23:06:03 145.980
CUBEBUG 1 17 Dec 23:03:02 23:07:21 59° 259° (W) 23:11:41 437.445
QB50P2 17 Dec 23:09:02 23:13:15 58° 101° (E) 23:17:28 145.880/145.840
DANDE 17 Dec 23:11:47 23:16:18 17° 277° (W) 23:21:11 436.750
BUGSAT 1 17 Dec 23:12:46 23:16:42 49° 100° (E) 23:20:38 437.445
POLYITAN 1 17 Dec 23:16:39 23:20:56 71° 102° (ESE) 23:25:12 437.675
NANOSAT C BR1 17 Dec 23:21:48 23:26:04 80° 103° (ESE) 23:30:19 145.865
BEESAT 2 17 Dec 23:26:01 23:30:11 61° 240° (WSW) 23:34:16 435.950
TIGRISAT 17 Dec 23:26:40 23:31:18 63° 286° (WNW) 23:35:57 435.000
ESTCUBE 1 17 Dec 23:31:41 23:35:40 30° 264° (W) 23:39:39 437.505/2401.250
QB50P1 17 Dec 23:35:40 23:39:55 72° 285° (WNW) 23:44:10 145.935-145.965
RS-15 17 Dec 23:41:14 23:49:57 27° 257° (WSW) 23:58:59 29.354- 29.394
AUBIESAT-1 17 Dec 23:43:58 23:46:35 15° 54° (NE) 23:49:14 437.475
PCSat 17 Dec 23:49:25 23:54:53 90° 240° (WSW) 00:00:18 145.827
ITUPSAT 1 17 Dec 23:50:13 23:53:40 20° 63° (ENE) 23:57:08 437.325
SWISSCUBE 17 Dec 23:50:50 23:54:30 22° 64° (ENE) 23:58:09 437.505
UNISAT 6 17 Dec 23:54:25 23:58:38 34° 291° (WNW) 00:02:52 437.425
POPSAT HIP 1 18 Dec 00:04:13 00:08:07 36° 290° (WNW) 00:12:00 437.405
M-CUBED/EXP-1 PRIME 18 Dec 00:05:41 00:09:33 24° 59° (ENE) 00:13:29 437.505
BEESAT 18 Dec 00:15:43 00:20:02 34° 68° (ENE) 00:24:21 436.000
AIST 2 18 Dec 00:15:55 00:19:58 41° 243° (WSW) 00:23:56 435.215
O/OREOS (USA 219) 18 Dec 00:23:18 00:25:43 14° 99° (E) 00:28:08 437.305
SPROUT 18 Dec 00:24:22 00:28:14 33° 263° (W) 00:32:08 437.525
YUBILEINY 18 Dec 00:25:59 00:34:42 78° 95° (E) 00:43:26 435.215
ANTELSAT 18 Dec 00:26:53 00:30:00 18° 297° (WNW) 00:33:08 437.575/2403.000
BEESAT 3 18 Dec 00:28:51 00:30:53 13° 251° (WSW) 00:32:55 437.485
TISAT 1 18 Dec 00:31:52 00:35:21 25° 265° (W) 00:38:51 437.305
DUCHIFAT 1 18 Dec 00:34:38 00:37:35 19° 295° (WNW) 00:40:31 145.980
KKS-1 18 Dec 00:36:20 00:37:50 12° 60° (ENE) 00:39:20 437.445
SO-50 18 Dec 00:40:54 00:41:55 11° 333° (NNW) 00:42:56 436.795
QB50P2 18 Dec 00:46:24 00:48:43 14° 298° (WNW) 00:51:01 145.880/145.840
BUGSAT 1 18 Dec 00:49:30 00:51:49 15° 296° (WNW) 00:54:09 437.445
POLYITAN 1 18 Dec 00:54:36 00:56:18 12° 299° (WNW) 00:58:01 437.675
NANOSAT C BR1 18 Dec 01:00:15 01:01:19 11° 300° (WNW) 01:02:23 145.865
AUBIESAT-1 18 Dec 01:16:03 01:20:51 85° 251° (WSW) 01:25:47 437.475
ITUPSAT 1 18 Dec 01:26:32 01:31:12 50° 260° (W) 01:35:54 437.325
SWISSCUBE 18 Dec 01:27:29 01:32:04 44° 261° (W) 01:36:40 437.505
PCSat 18 Dec 01:35:15 01:37:27 13° 258° (WSW) 01:39:39 145.827
Oscar 19 18 Dec 01:36:52 01:41:57 51° 100° (E) 01:46:59 437.125/150
M-CUBED/EXP-1 PRIME 18 Dec 01:39:38 01:44:14 46° 257° (WSW) 01:49:00 437.505
ITAMSAT 1 18 Dec 01:46:20 01:50:26 23° 94° (E) 01:54:30 435.822/435.867
BEESAT 18 Dec 01:53:50 01:57:54 27° 265° (W) 02:01:59 436.000
O/OREOS (USA 219) 18 Dec 02:00:13 02:04:36 56° 296° (WNW) 02:09:01 437.305
KKS-1 18 Dec 02:09:24 02:13:49 81° 257° (WSW) 02:18:17 437.445
STARS 18 Dec 02:12:25 02:16:47 74° 74° (ENE) 02:21:11 437.465
YUBILEINY 18 Dec 02:25:42 02:32:28 24° 296° (WNW) 02:39:17 435.215
AUBIESAT-1 18 Dec 02:56:02 02:56:28 10° 268° (W) 02:56:53 437.475
MOZHAYETS 4 18 Dec 02:59:43 03:01:42 13° 60° (ENE) 03:03:42
Gurwin Techsat 1B 18 Dec 03:02:14 03:07:34 73° 103° (ESE) 03:12:51 435.225
AO-7 18 Dec 03:05:43 03:11:03 18° 89° (E) 03:16:20 29.400- 29.500
Oscar 19 18 Dec 03:16:59 03:20:56 22° 297° (WNW) 03:24:52 437.125/150
ITAMSAT 1 18 Dec 03:25:12 03:30:07 45° 291° (WNW) 03:35:00 435.822/435.867
HORYU 2 18 Dec 03:29:09 03:33:36 54° 100° (E) 03:38:01 437.375
AIST 1 18 Dec 03:30:42 03:34:34 32° 75° (ENE) 03:38:23
VERMONT LUNAR 18 Dec 03:32:25 03:33:09 11° 147° (SSE) 03:33:53 437.305
STARS 18 Dec 03:52:56 03:53:47 11° 271° (W) 03:54:38 437.465
GONETS M04 18 Dec 04:28:02 04:33:35 19° 76° (ENE) 04:39:09
MOZHAYETS 4 18 Dec 04:33:37 04:38:16 79° 257° (WSW) 04:42:57
Gurwin Techsat 1B 18 Dec 04:43:38 04:46:55 17° 300° (WNW) 04:50:12 435.225
PRISM 18 Dec 04:47:43 04:51:08 24° 66° (ENE) 04:54:33 437.425
STRAND 1 18 Dec 04:50:38 04:53:19 15° 59° (ENE) 04:56:00 437.568
AO-7 18 Dec 04:56:30 05:04:56 86° 108° (ESE) 05:13:19 29.400- 29.500
HORYU 2 18 Dec 05:06:56 05:09:51 17° 297° (WNW) 05:12:45 437.375
PHONESAT 2.4 18 Dec 05:07:36 05:10:43 27° 158° (SSE) 05:13:49 2401.200-2431.200
VERMONT LUNAR 18 Dec 05:07:38 05:10:51 33° 163° (SSE) 05:14:05 437.305
AIST 1 18 Dec 05:08:46 05:12:01 21° 272° (W) 05:15:15
JAS-2 18 Dec 05:30:33 05:36:24 74° 102° (ESE) 05:41:41 435.910
SO-50 18 Dec 05:45:48 05:50:14 33° 46° (NE) 05:54:40 436.795
CUBESAT XI-V 18 Dec 05:48:33 05:53:02 48° 72° (ENE) 05:57:32 437.345
Cubesat XI-IV 18 Dec 05:57:47 06:02:24 30° 95° (E) 06:07:00 437.490
GONETS M04 18 Dec 06:20:14 06:29:06 89° 97° (E) 06:38:00
PRISM 18 Dec 06:22:45 06:26:32 31° 263° (W) 06:30:20 437.425
STRAND 1 18 Dec 06:26:43 06:31:50 81° 256° (WSW) 06:36:58 437.568
CUTE-I 18 Dec 06:31:30 06:36:45 58° 101° (E) 06:41:59 437.470
VERMONT LUNAR 18 Dec 06:45:28 06:48:56 55° 179° (S) 06:52:24 437.305
PHONESAT 2.4 18 Dec 06:45:32 06:49:04 54° 175° (S) 06:52:38 2401.200-2431.200
AO-7 18 Dec 06:50:27 06:56:45 25° 309° (NW) 07:03:03 29.400- 29.500
JAS-2 18 Dec 07:17:06 07:20:41 17° 304° (NW) 07:24:05 435.910
SO-50 18 Dec 07:26:19 07:30:50 38° 244° (WSW) 07:35:20 436.795
CUBESAT XI-V 18 Dec 07:27:29 07:30:43 18° 268° (W) 07:33:58 437.345
Cubesat XI-IV 18 Dec 07:37:41 07:42:32 38° 293° (WNW) 07:47:23 437.490
HO-68 18 Dec 07:40:50 07:43:58 13° 87° (E) 07:47:05 435.675
CUTE-I 18 Dec 08:12:34 08:16:23 21° 299° (WNW) 08:20:11 437.470
GOMX 1 18 Dec 08:14:42 08:17:09 14° 91° (E) 08:19:39 467.674
GONETS M04 18 Dec 08:20:53 08:27:12 21° 299° (WNW) 08:33:33
VERMONT LUNAR 18 Dec 08:23:45 08:27:01 36° 196° (SSW) 08:30:17 437.305
PHONESAT 2.4 18 Dec 08:24:05 08:27:34 44° 192° (SSW) 08:31:03 2401.200-2431.200
AAUSAT CUBESAT 2 18 Dec 08:37:30 08:40:18 17° 92° (E) 08:43:04 437.432
CANX-2 18 Dec 08:40:19 08:44:11 31° 96° (E) 08:48:00 2200.000
DOVE 4 18 Dec 08:51:51 08:55:43 25° 95° (E) 08:59:44 437.250
TIGRISAT 18 Dec 08:52:25 08:54:44 14° 61° (ENE) 08:57:06 435.000
QB50P1 18 Dec 08:58:12 08:58:33 10° 60° (ENE) 08:58:55 145.935-145.965
COMPASS 1 18 Dec 09:09:51 09:13:56 43° 98° (E) 09:17:58 437.405
BRITE-PL 18 Dec 09:10:24 09:14:58 68° 102° (ESE) 09:19:55 437.365/2234.400
CUTE 1.7 + AOD 2 18 Dec 09:11:14 09:15:32 62° 101° (E) 09:19:47 437.475
SEEDS 18 Dec 09:11:31 09:15:44 53° 100° (E) 09:19:55 437.485
DX 1 18 Dec 09:12:02 09:14:35 15° 92° (E) 09:17:08 434.975-435.025
UNISAT 6 18 Dec 09:18:32 09:22:09 26° 67° (ENE) 09:25:51 437.425
MaSat-1 18 Dec 09:19:14 09:21:21 28° 113° (ESE) 09:23:23 437.345
POPSAT HIP 1 18 Dec 09:23:36 09:26:35 19° 65° (ENE) 09:29:34 437.405
HO-68 18 Dec 09:25:35 09:32:47 77° 105° (ESE) 09:39:55 435.675
CINEMA 3 18 Dec 09:37:09 09:41:36 42° 98° (E) 09:46:12 145.822/145.860
Oscar 11 18 Dec 09:38:12 09:42:18 39° 98° (E) 09:46:23 145.826/435.025
CUBEBUG 2 18 Dec 09:38:59 09:42:55 27° 95° (E) 09:46:56 437.445
DELFI C3 18 Dec 09:43:03 09:46:54 36° 97° (E) 09:50:41 145.870
UKube-1 18 Dec 09:45:03 09:48:59 33° 97° (E) 09:52:53 .
HUMSAT D 18 Dec 09:48:15 09:50:29 14° 90° (E) 09:52:44 437.325/437.525
50 SAT 18 Dec 09:49:11 09:49:14 10° 89° (E) 09:49:17 437.505
ANTELSAT 18 Dec 09:49:24 09:53:38 54° 72° (ENE) 09:58:00 437.575/2403.000
GOMX 1 18 Dec 09:50:59 09:55:36 67° 285° (WNW) 10:00:33 467.674
DUCHIFAT 1 18 Dec 09:51:58 09:55:50 36° 70° (ENE) 09:59:42 145.980
VELOX 1 18 Dec 09:55:03 09:57:36 15° 91° (E) 10:00:09 145.980
ZACube-1 18 Dec 10:01:22 10:05:28 33° 97° (E) 10:09:36 437.345
QB50P2 18 Dec 10:03:16 10:07:21 50° 72° (ENE) 10:11:27 145.880/145.840
PHONESAT 2.4 18 Dec 10:03:20 10:05:47 17° 208° (SSW) 10:08:14 2401.200-2431.200
VERMONT LUNAR 18 Dec 10:03:23 10:04:45 12° 212° (SSW) 10:06:07 437.305
BUGSAT 1 18 Dec 10:04:13 10:08:04 40° 71° (ENE) 10:11:53 437.445
CUSAT 1 18 Dec 10:04:49 10:08:12 64° 96° (E) 10:12:44 437.405
POLYITAN 1 18 Dec 10:11:02 10:15:11 61° 74° (ENE) 10:19:21 437.675
AAUSAT CUBESAT 2 18 Dec 10:12:08 10:16:11 43° 288° (WNW) 10:20:11 437.432
NANOSAT C BR1 18 Dec 10:15:40 10:19:50 68° 75° (ENE) 10:24:02 145.865
CANX-2 18 Dec 10:16:27 10:19:59 25° 293° (WNW) 10:23:31 2200.000
UWE-3 18 Dec 10:22:29 10:27:01 66° 101° (ESE) 10:31:38 435.000/436.395/437.385
TIGRISAT 18 Dec 10:26:41 10:30:57 62° 259° (W) 10:35:22 435.000
FUNcube-1 18 Dec 10:28:41 10:33:10 64° 101° (E) 10:37:42 145.935
DOVE 4 18 Dec 10:29:14 10:33:32 38° 289° (WNW) 10:38:04 437.250
QB50P1 18 Dec 10:29:34 10:33:47 84° 257° (WSW) 10:38:01 145.935-145.965
O/OREOS (USA 219) 18 Dec 10:29:58 10:34:07 35° 60° (ENE) 10:38:15 437.305
YUBILEINY 18 Dec 10:35:06 10:43:11 41° 71° (ENE) 10:51:13 435.215
AISAT 18 Dec 10:35:23 10:39:35 41° 99° (E) 10:43:46 437.250
DANDE 18 Dec 10:43:52 10:47:06 52° 285° (WNW) 10:51:25 436.750
COMPASS 1 18 Dec 10:46:24 10:49:20 18° 295° (WNW) 10:52:16 437.405
DX 1 18 Dec 10:46:54 10:51:08 51° 288° (WNW) 10:55:20 434.975-435.025
SEEDS 18 Dec 10:48:35 10:51:08 16° 297° (WNW) 10:53:40 437.485
CUTE 1.7 + AOD 2 18 Dec 10:48:44 10:50:57 14° 298° (WNW) 10:53:09 437.475
BRITE-PL 18 Dec 10:50:34 10:53:04 15° 297° (WNW) 10:55:39 437.365/2234.400
CUBEBUG 1 18 Dec 10:51:43 10:55:10 23° 94° (E) 10:58:36 437.445
UNISAT 6 18 Dec 10:54:59 10:58:50 30° 264° (W) 11:02:47 437.425
POPSAT HIP 1 18 Dec 10:58:15 11:02:12 40° 262° (W) 11:06:12 437.405
HO-68 18 Dec 11:14:25 11:19:46 23° 304° (NW) 11:25:05 435.675
CINEMA 3 18 Dec 11:14:57 11:18:34 23° 294° (WNW) 11:22:18 145.822/145.860
Oscar 11 18 Dec 11:14:57 11:18:14 21° 295° (WNW) 11:21:29 145.826/435.025
CUBEBUG 2 18 Dec 11:15:32 11:19:36 32° 291° (WNW) 11:23:46 437.445
DELFI C3 18 Dec 11:18:53 11:21:56 20° 294° (WNW) 11:24:58 145.870
Oscar 19 18 Dec 11:19:37 11:21:22 12° 56° (ENE) 11:23:07 437.125/150
50 SAT 18 Dec 11:20:47 11:24:56 71° 285° (WNW) 11:29:04 437.505
UKube-1 18 Dec 11:21:30 11:24:59 24° 294° (WNW) 11:28:27 .
HUMSAT D 18 Dec 11:22:23 11:26:37 56° 287° (WNW) 11:30:52 437.325/437.525
ESTCUBE 1 18 Dec 11:22:55 11:27:20 52° 100° (E) 11:31:43 437.505/2401.250
ANTELSAT 18 Dec 11:28:23 11:30:49 15° 270° (W) 11:33:18 437.575/2403.000
DUCHIFAT 1 18 Dec 11:28:44 11:31:49 20° 267° (W) 11:34:55 145.980
VELOX 1 18 Dec 11:30:12 11:34:31 53° 288° (WNW) 11:38:48 145.980
ZACube-1 18 Dec 11:37:59 11:41:42 26° 293° (WNW) 11:45:27 437.345
BUGSAT 1 18 Dec 11:40:59 11:43:43 17° 267° (W) 11:46:27 437.445
QB50P2 18 Dec 11:41:11 11:43:34 15° 269° (W) 11:45:57 145.880/145.840
POLYITAN 1 18 Dec 11:49:54 11:51:32 12° 270° (W) 11:53:10 437.675
CUSAT 1 18 Dec 11:51:59 11:52:22 10° 305° (NW) 11:52:46 437.405
RS-15 18 Dec 11:52:28 12:02:47 50° 112° (ESE) 12:13:05 29.354- 29.394
NANOSAT C BR1 18 Dec 11:55:12 11:56:11 11° 271° (W) 11:57:10 145.865
UWE-3 18 Dec 12:00:34 12:03:03 15° 298° (WNW) 12:05:34 435.000/436.395/437.385
FUNcube-1 18 Dec 12:06:33 12:09:01 15° 297° (WNW) 12:11:31 145.935
O/OREOS (USA 219) 18 Dec 12:09:42 12:13:21 25° 257° (WSW) 12:17:00 437.305
SPROUT 18 Dec 12:09:52 12:13:53 37° 98° (E) 12:17:52 437.525
AISAT 18 Dec 12:12:40 12:15:57 21° 295° (WNW) 12:19:14 437.250
TISAT 1 18 Dec 12:15:05 12:19:09 45° 99° (E) 12:23:12 437.305
CUBEBUG 1 18 Dec 12:27:42 12:31:36 33° 291° (WNW) 12:35:29 437.445
YUBILEINY 18 Dec 12:31:56 12:40:04 47° 272° (W) 12:48:12 435.215
Gurwin Techsat 1B 18 Dec 12:46:51 12:50:21 18° 60° (ENE) 12:53:52 435.225
Oscar 19 18 Dec 12:54:43 12:59:51 81° 75° (ENE) 13:05:02 437.125/150
ESTCUBE 1 18 Dec 13:00:54 13:03:48 17° 297° (WNW) 13:06:41 437.505/2401.250
ITAMSAT 1 18 Dec 13:05:09 13:09:57 40° 68° (ENE) 13:14:46 435.822/435.867
BEESAT 2 18 Dec 13:23:11 13:26:11 20° 112° (ESE) 13:29:13 435.950
M-CUBED/EXP-1 PRIME 18 Dec 13:23:51 13:26:02 14° 93° (E) 13:28:08 437.505
ITUPSAT 1 18 Dec 13:26:17 13:30:45 38° 98° (E) 13:35:10 437.325
SWISSCUBE 18 Dec 13:26:50 13:31:23 43° 99° (E) 13:35:53 437.505
SPROUT 18 Dec 13:46:31 13:49:44 21° 294° (WNW) 13:52:57 437.525
TISAT 1 18 Dec 13:51:52 13:54:38 17° 296° (WNW) 13:57:24 437.305
BEESAT 18 Dec 13:52:15 13:57:02 72° 103° (ESE) 14:01:46 436.000
ISS 18 Dec 13:59:12 14:01:35 19° 134° (SE) 14:03:57 145.825
KKS-1 18 Dec 14:00:38 14:03:45 18° 93° (E) 14:06:51 437.445
STARS 18 Dec 14:03:18 14:05:21 13° 90° (E) 14:07:23 437.465
RS-15 18 Dec 14:04:28 14:15:04 54° 316° (NW) 14:25:50 29.354- 29.394
AO-7 18 Dec 14:05:35 14:12:32 31° 55° (NE) 14:19:31 29.400- 29.500
AIST 2 18 Dec 14:15:14 14:19:01 32° 115° (ESE) 14:22:51 435.215
BEESAT 3 18 Dec 14:22:21 14:26:27 90° 123° (ESE) 14:30:39 437.485
Gurwin Techsat 1B 18 Dec 14:24:30 14:29:47 67° 258° (WSW) 14:35:05 435.225
HORYU 2 18 Dec 14:28:38 14:33:00 57° 72° (ENE) 14:37:25 437.375
PCSat 18 Dec 14:31:53 14:37:14 69° 117° (ESE) 14:42:39 145.827
AUBIESAT-1 18 Dec 14:33:16 14:37:44 70° 107° (ESE) 14:41:47 437.475
Oscar 19 18 Dec 14:37:40 14:39:49 13° 272° (W) 14:41:59 437.125/150
ITAMSAT 1 18 Dec 14:45:13 14:49:33 27° 265° (W) 14:53:54 435.822/435.867
M-CUBED/EXP-1 PRIME 18 Dec 14:57:05 15:01:33 60° 292° (WNW) 15:05:37 437.505
BEESAT 2 18 Dec 15:00:11 15:04:08 43° 309° (NW) 15:08:10 435.950
ITUPSAT 1 18 Dec 15:04:35 15:08:26 25° 295° (WNW) 15:12:16 437.325
SWISSCUBE 18 Dec 15:05:18 15:08:58 23° 296° (WNW) 15:12:37 437.505
BEESAT 18 Dec 15:31:43 15:34:17 15° 300° (WNW) 15:36:50 436.000
ISS 18 Dec 15:34:37 15:37:53 60° 331° (NNW) 15:41:09 145.825
KKS-1 18 Dec 15:36:21 15:40:36 44° 289° (WNW) 15:44:51 437.445
STARS 18 Dec 15:37:51 15:42:14 63° 287° (WNW) 15:46:37 437.465
JAS-2 18 Dec 15:41:46 15:48:50 42° 67° (ENE) 15:55:21 435.910
AIST 2 18 Dec 15:53:52 15:57:38 30° 314° (NW) 16:01:27 435.215
AO-7 18 Dec 15:56:27 16:04:43 68° 255° (WSW) 16:13:05 29.400- 29.500
AIST 1 18 Dec 16:02:19 16:05:24 19° 87° (E) 16:08:28
BEESAT 3 18 Dec 16:03:00 16:05:16 14° 323° (NW) 16:07:33 437.485
HORYU 2 18 Dec 16:07:34 16:10:02 15° 269° (W) 16:12:31 437.375
AUBIESAT-1 18 Dec 16:09:42 16:12:02 14° 306° (NW) 16:14:17 437.475
PCSat 18 Dec 16:16:59 16:21:10 22° 317° (NW) 16:25:24 145.827
CUTE-I 18 Dec 16:17:24 16:20:28 16° 59° (ENE) 16:23:32 437.470
RS-15 18 Dec 16:22:06 16:30:43 25° 347° (NNW) 16:39:33 29.354- 29.394
MOZHAYETS 4 18 Dec 16:28:36 16:32:18 23° 93° (E) 16:35:56
GONETS M04 18 Dec 16:29:32 16:37:58 48° 74° (ENE) 16:46:15
ISS 18 Dec 17:12:23 17:14:58 21° 350° (N) 17:17:32 145.825
Cubesat XI-IV 18 Dec 17:20:44 17:25:55 54° 71° (ENE) 17:31:06 437.490
JAS-2 18 Dec 17:26:32 17:33:47 43° 263° (W) 17:40:32 435.910
AIST 1 18 Dec 17:38:39 17:42:45 38° 284° (WNW) 17:46:52
CUBESAT XI-V 18 Dec 17:47:02 17:48:09 11° 88° (E) 17:49:15 437.345
CUTE-I 18 Dec 17:54:33 17:59:52 79° 256° (WSW) 18:05:13 437.470
AO-7 18 Dec 17:55:54 17:59:01 12° 274° (W) 18:02:09 29.400- 29.500
PRISM 18 Dec 18:04:41 18:08:27 32° 97° (E) 18:12:10 437.425
MOZHAYETS 4 18 Dec 18:05:21 18:09:37 37° 290° (WNW) 18:13:51
HO-68 18 Dec 18:12:05 18:15:27 14° 49° (NE) 18:18:49 435.675
GONETS M04 18 Dec 18:26:41 18:34:36 40° 274° (W) 18:42:26
STRAND 1 18 Dec 18:36:36 18:41:07 31° 96° (E) 18:45:36 437.568
RS-15 18 Dec 18:38:36 18:47:57 30° 23° (NNE) 18:57:34 29.354- 29.394
MaSat-1 18 Dec 18:49:11 18:51:34 75° 63° (ENE) 18:54:05 437.345
ISS 18 Dec 18:49:46 18:52:22 21° 10° (N) 18:54:57 145.825
CUSAT 1 18 Dec 18:59:17 19:03:33 16° 61° (ENE) 19:08:07 437.405
Cubesat XI-IV 18 Dec 19:02:26 19:06:19 20° 268° (W) 19:10:14 437.490
CUBESAT XI-V 18 Dec 19:21:32 19:26:09 78° 285° (WNW) 19:30:44 437.345
GOMX 1 18 Dec 19:25:10 19:27:27 15° 63° (ENE) 19:29:44 467.674
AAUSAT CUBESAT 2 18 Dec 19:30:45 19:33:05 15° 63° (ENE) 19:35:24 437.432
CANX-2 18 Dec 19:34:48 19:38:21 26° 68° (ENE) 19:41:57 2200.000
DANDE 18 Dec 19:38:50 19:44:46 26° 67° (ENE) 19:51:26 436.750
PRISM 18 Dec 19:40:33 19:43:49 23° 294° (WNW) 19:47:03 437.425
HO-68 18 Dec 19:54:44 20:01:49 64° 69° (ENE) 20:08:54 435.675
DOVE 4 18 Dec 19:59:41 20:03:02 24° 67° (ENE) 20:06:25 437.250
COMPASS 1 18 Dec 20:02:41 20:06:30 34° 70° (ENE) 20:10:21 437.405
SEEDS 18 Dec 20:04:55 20:08:56 43° 72° (ENE) 20:12:59 437.485
CUTE 1.7 + AOD 2 18 Dec 20:05:15 20:09:22 50° 73° (ENE) 20:13:32 437.475
DX 1 18 Dec 20:09:09 20:11:54 17° 63° (ENE) 20:14:39 434.975-435.025
STRAND 1 18 Dec 20:15:45 20:20:17 33° 293° (WNW) 20:24:47 437.568
BRITE-PL 18 Dec 20:23:09 20:27:22 85° 76° (ENE) 20:31:32 437.365/2234.400
ISS 18 Dec 20:26:09 20:29:25 62° 30° (NNE) 20:32:40 145.825
DELFI C3 18 Dec 20:32:59 20:36:28 27° 68° (ENE) 20:39:59 145.870
Oscar 11 18 Dec 20:34:09 20:38:05 35° 70° (ENE) 20:42:02 145.826/435.025
CUBEBUG 2 18 Dec 20:39:13 20:42:35 24° 67° (ENE) 20:46:02 437.445
CUSAT 1 18 Dec 20:40:15 20:47:41 69° 78° (ENE) 20:56:09 437.405
CINEMA 3 18 Dec 20:40:45 20:44:37 39° 71° (ENE) 20:48:35 145.822/145.860
UKube-1 18 Dec 20:41:18 20:45:11 33° 69° (ENE) 20:49:05 .
HUMSAT D 18 Dec 20:42:56 20:44:29 12° 61° (ENE) 20:46:01 437.325/437.525
VELOX 1 18 Dec 20:54:22 20:57:12 17° 63° (ENE) 21:00:02 145.980
ZACube-1 18 Dec 20:59:07 21:02:43 29° 68° (ENE) 21:06:23 437.345
GOMX 1 18 Dec 21:01:08 21:05:11 51° 260° (W) 21:09:15 467.674
BEESAT 3 18 Dec 21:04:36 21:06:32 13° 36° (NE) 21:08:27 437.485
